Location: Unspecified
(38.9820°N, 94.4650°W)
Time: 22:11:02
(UTC-05:00)

Cosmos 1674 - Visible Passes

Search period start: 15 July 2018 00:00
Search period end: 25 July 2018 00:00
Orbit: 497 x 520 km, 82.5° (Epoch: 15 July)

Date Brightness Start Highest point End Pass type
(mag) Time Alt. Az. Time Alt. Az. Time Alt. Az.
19 Jul 5.2 05:23:02 10° NNE 05:26:14 25° ENE 05:29:22 10° SE visible
20 Jul 5.6 05:06:10 10° NNE 05:08:58 20° ENE 05:11:46 10° ESE visible
21 Jul 5.7 04:49:24 10° NE 04:51:42 15° ENE 04:54:00 10° ESE visible
22 Jul 5.9 04:32:55 10° NE 04:34:26 12° ENE 04:35:55 10° E visible
24 Jul 2.6 05:32:08 10° NNW 05:35:52 69° W 05:39:33 10° S visible
